Moron de la Frontera, Spain

9:19 PM CEST on April 25, 2017 (GMT +0200)
Moron Air Base

Weather History for LEMO - December, 2012

Change the Weather History Date:

Sunday, December 2, 2012

  Actual Average Record
Temperature  
Mean Temperature 42 °F -  
Max Temperature 53 °F 60 °F 73 °F (1999)
Min Temperature 32 °F 42 °F 32 °F (2012)
Degree Days  
Heating Degree Days 22    
Moisture  
Dew Point 34 °F    
Average Humidity 78    
Maximum Humidity 100    
Minimum Humidity 51    
Precipitation  
Precipitation 0.00 in - - ()
Sea Level Pressure  
Sea Level Pressure 30.20 in    
Wind  
Wind Speed 3 mph ()    
Max Wind Speed 12 mph    
Max Gust Speed -    
Averages and records for this station are not official NWS values.
T = Trace of Precipitation, MM = Missing Value Source: Averaged Metar Reports

Daily Weather History Graph

Daily Weather History Graph

Search for Another Location

Airport or City:

Trip Planner

Search our weather history database for the weather conditions in past years. The results will help you decide how hot, cold, wet, or windy it might be!

Date:

Astronomy

Dec. 02, 2012 Rise Set
Actual Time 8:18 AM CET 6:05 PM CET
Civil Twilight 7:49 AM CET 6:33 PM CET
Nautical Twilight 7:17 AM CET 7:06 PM CET
Astronomical Twilight 6:46 AM CET 7:37 PM CET
Moon 9:37 PM CET (12/2) 11:01 AM CET (12/2)
Length of Visible Light 10h 44m
Length of Day
9h 46m
Waning Gibbous, 87% of the Moon is Illuminated
Dec 2
Waning Gibbous
Dec 6
Last Quarter
Dec 13
New
Dec 20
First Quarter
Dec 28
Full

Hourly Weather History & Observations

Time (CET) Temp. Windchill Dew Point Humidity Pressure Visibility Wind Dir Wind Speed Gust Speed Precip Events Conditions
12:00 AM 35.6 °F - 35.6 °F 100% 30.04 in - Calm Calm - N/A   Clear
1:00 AM 33.8 °F 30.8 °F 33.8 °F 100% 30.06 in - East 3.5 mph - N/A   Clear
2:00 AM 33.8 °F - 32.0 °F 93% 30.06 in - Calm Calm - N/A   Clear
3:00 AM 33.8 °F - 32.0 °F 93% 30.09 in - Calm Calm - N/A   Clear
4:00 AM 33.8 °F - 32.0 °F 93% 30.09 in - ENE 2.3 mph - N/A   Clear
5:00 AM 32.0 °F 28.7 °F 32.0 °F 100% 30.12 in - North 3.5 mph - N/A   Clear
6:00 AM 33.8 °F 29.6 °F 32.0 °F 93% 30.12 in - NE 4.6 mph - N/A   Clear
7:00 AM 35.6 °F 32.8 °F 33.8 °F 93% 30.15 in - ENE 3.5 mph - N/A   Clear
8:00 AM 33.8 °F - 32.0 °F 93% 30.18 in - NNE 2.3 mph - N/A   Clear
9:00 AM 33.8 °F 29.6 °F 32.0 °F 93% 30.21 in - North 4.6 mph - N/A   Clear
10:00 AM 39.2 °F 37.0 °F 35.6 °F 87% 30.24 in - NNE 3.5 mph - N/A   Clear
11:00 AM 44.6 °F 39.7 °F 33.8 °F 66% 30.24 in - ENE 9.2 mph - N/A   Clear
12:00 PM 46.4 °F 41.5 °F 35.6 °F 66% 30.27 in - ENE 10.4 mph - N/A   Clear
1:00 PM 50.0 °F - 35.6 °F 58% 30.24 in - ENE 10.4 mph - N/A   Clear
2:00 PM 51.8 °F - 35.6 °F 54% 30.24 in - ENE 11.5 mph - N/A   Clear
3:00 PM 53.6 °F - 37.4 °F 54% 30.24 in - ENE 11.5 mph - N/A   Clear
4:00 PM 53.6 °F - 35.6 °F 51% 30.24 in - ENE 9.2 mph - N/A   Clear
5:00 PM 53.6 °F - 35.6 °F 51% 30.24 in - ENE 9.2 mph - N/A   Clear
6:00 PM 50.0 °F - 35.6 °F 58% 30.27 in - ENE 3.5 mph - N/A   Clear
7:00 PM 46.4 °F 45.2 °F 35.6 °F 66% 30.27 in - ESE 3.5 mph - N/A   Clear
8:00 PM 42.8 °F 41.1 °F 35.6 °F 76% 30.30 in - ENE 3.5 mph - N/A   Clear
9:00 PM 42.8 °F - 35.6 °F 76% 30.30 in - ENE 1.2 mph - N/A   Clear
10:00 PM 39.2 °F - 33.8 °F 81% 30.33 in - Calm Calm - N/A   Clear
11:00 PM 37.4 °F - 33.8 °F 87% 30.36 in - ESE 2.3 mph - N/A   Clear